Black River Falls, WI

4:03 PM CDT on July 22, 2017 (GMT -0500)
Black River Falls Area

Weather History for KBCK - March, 2013

Change the Weather History Date:

Saturday, March 23, 2013

  Actual Average (KCMY) Record (KCMY)
Temperature  
Mean Temperature 22 °F -  
Max Temperature 37 °F 46 °F 68 °F (2003)
Min Temperature 8 °F 24 °F 0 °F (1955)
Degree Days  
Heating Degree Days 42    
Moisture  
Dew Point 15 °F    
Average Humidity 67    
Maximum Humidity 92    
Minimum Humidity 41    
Precipitation  
Precipitation 0.00 in - - ()
Sea Level Pressure  
Sea Level Pressure 30.08 in    
Wind  
Wind Speed 2 mph (NW)    
Max Wind Speed 9 mph    
Max Gust Speed -    
Visibility 10 miles    
Events      
Averages and records for this station are not official NWS values.
T = Trace of Precipitation, MM = Missing Value Source: NWS Daily Summary

Daily Weather History Graph

Daily Weather History Graph

Search for Another Location

Airport or City:

Trip Planner

Search our weather history database for the weather conditions in past years. The results will help you decide how hot, cold, wet, or windy it might be!

Date:

Astronomy

Mar. 23, 2013 Rise Set
Actual Time 7:00 AM CDT 7:19 PM CDT
Civil Twilight 6:31 AM CDT 7:48 PM CDT
Nautical Twilight 5:57 AM CDT 8:23 PM CDT
Astronomical Twilight 5:22 AM CDT 8:58 PM CDT
Moon 3:40 PM CDT (3/23) 4:44 AM CDT (3/23)
Length of Visible Light 13h 17m
Length of Day
12h 19m
Waxing Gibbous, 85% of the Moon is Illuminated
Mar 23
Waxing Gibbous
Mar 27
Full
Apr 2
Last Quarter
Apr 10
New
Apr 18
First Quarter

Hourly Weather History & Observations

Time (CDT) Temp. Windchill Dew Point Humidity Pressure Visibility Wind Dir Wind Speed Gust Speed Precip Events Conditions
12:15 AM 12.2 °F - 10.4 °F 92% 30.07 in 10.0 mi Calm Calm - N/A   Clear
12:35 AM 12.2 °F - 10.4 °F 92% 30.08 in 10.0 mi Calm Calm - N/A   Clear
12:55 AM 12.2 °F - 10.4 °F 92% 30.08 in 10.0 mi Calm Calm - N/A   Clear
1:15 AM 10.4 °F - 8.6 °F 92% 30.08 in 10.0 mi Calm Calm - N/A   Clear
1:35 AM 12.2 °F - 10.4 °F 92% 30.08 in 10.0 mi Calm Calm - N/A   Clear
1:55 AM 10.4 °F - 8.6 °F 92% 30.08 in 10.0 mi Calm Calm - N/A   Clear
2:15 AM 12.2 °F - 8.6 °F 85% 30.08 in 10.0 mi Calm Calm - N/A   Clear
2:35 AM 12.2 °F - 8.6 °F 85% 30.08 in 10.0 mi Calm Calm - N/A   Clear
2:55 AM 12.2 °F - 8.6 °F 85% 30.07 in 10.0 mi Calm Calm - N/A   Clear
3:35 AM 12.2 °F - 8.6 °F 85% 30.06 in 10.0 mi Calm Calm - N/A   Clear
3:55 AM 12.2 °F - 10.4 °F 92% 30.05 in 10.0 mi Calm Calm - N/A   Clear
4:15 AM 14.0 °F - 10.4 °F 86% 30.05 in 10.0 mi Calm Calm - N/A   Clear
4:35 AM 14.0 °F - 10.4 °F 86% 30.05 in 10.0 mi Calm Calm - N/A   Clear
4:55 AM 12.2 °F - 10.4 °F 92% 30.05 in 10.0 mi Calm Calm - N/A   Clear
5:15 AM 12.2 °F - 10.4 °F 92% 30.06 in 10.0 mi Calm Calm - N/A   Clear
5:35 AM 12.2 °F - 8.6 °F 85% 30.05 in 10.0 mi Calm Calm - N/A   Clear
5:55 AM 10.4 °F - 8.6 °F 92% 30.08 in 10.0 mi Calm Calm - N/A   Clear
6:15 AM 10.4 °F - 8.6 °F 92% 30.10 in 10.0 mi Calm Calm - N/A   Clear
6:55 AM 10.4 °F - 8.6 °F 92% 30.12 in 10.0 mi Calm Calm - N/A   Mostly Cloudy
7:15 AM 8.6 °F - 5.0 °F 85% 30.11 in 10.0 mi Calm Calm - N/A   Overcast
7:35 AM 10.4 °F - 8.6 °F 92% 30.12 in 10.0 mi Calm Calm - N/A   Overcast
8:15 AM 10.4 °F - 8.6 °F 92% 30.11 in 10.0 mi Calm Calm - N/A   Scattered Clouds
8:35 AM 14.0 °F - 10.4 °F 86% 30.12 in 10.0 mi Calm Calm - N/A   Clear
9:15 AM 19.4 °F - 14.0 °F 80% 30.13 in 10.0 mi Calm Calm - N/A   Clear
9:35 AM 23.0 °F - 14.0 °F 68% 30.12 in 10.0 mi Calm Calm - N/A   Clear
9:55 AM 26.6 °F - 14.0 °F 59% 30.13 in 10.0 mi Calm Calm - N/A   Clear
10:15 AM 26.6 °F - 14.0 °F 59% 30.12 in 10.0 mi Calm Calm - N/A   Clear
10:35 AM 28.4 °F - 14.0 °F 55% 30.11 in 10.0 mi Calm Calm - N/A   Clear
10:55 AM 32.0 °F - 15.8 °F 51% 30.12 in 10.0 mi Calm Calm - N/A   Clear
11:15 AM 32.0 °F - 14.0 °F 48% 30.11 in 10.0 mi Calm Calm - N/A   Clear
11:35 AM 32.0 °F - 17.6 °F 55% 30.11 in 10.0 mi Calm Calm - N/A   Clear
11:55 AM 33.8 °F - 15.8 °F 48% 30.11 in 10.0 mi Calm Calm - N/A   Clear
12:15 PM 33.8 °F - 17.6 °F 52% 30.11 in 10.0 mi Calm Calm - N/A   Clear
12:35 PM 35.6 °F 32.8 °F 15.8 °F 44% 30.11 in 10.0 mi West 3.5 mph - N/A   Clear
12:55 PM 35.6 °F 29.9 °F 17.6 °F 48% 30.11 in 10.0 mi West 6.9 mph - N/A   Clear
1:15 PM 35.6 °F 32.8 °F 15.8 °F 44% 30.11 in 10.0 mi West 3.5 mph - N/A   Clear
1:35 PM 35.6 °F 30.7 °F 15.8 °F 44% 30.10 in 10.0 mi West 5.8 mph - N/A   Clear
1:55 PM 37.4 °F 32.1 °F 17.6 °F 45% 30.09 in 10.0 mi West 6.9 mph - N/A   Clear
2:15 PM 37.4 °F 30.8 °F 17.6 °F 45% 30.09 in 10.0 mi West 9.2 mph - N/A   Clear
2:35 PM 37.4 °F 31.4 °F 19.4 °F 48% 30.09 in 10.0 mi WSW 8.1 mph - N/A   Clear
2:55 PM 37.4 °F 33.8 °F 17.6 °F 45% 30.08 in 10.0 mi WSW 4.6 mph - N/A   Clear
3:15 PM 37.4 °F 31.4 °F 17.6 °F 45% 30.07 in 10.0 mi West 8.1 mph - N/A   Clear
3:35 PM 37.4 °F 33.8 °F 17.6 °F 45% 30.06 in 10.0 mi West 4.6 mph - N/A   Clear
3:55 PM 37.4 °F 32.8 °F 17.6 °F 45% 30.06 in 10.0 mi West 5.8 mph - N/A   Clear
4:15 PM 37.4 °F 34.9 °F 15.8 °F 41% 30.05 in 10.0 mi West 3.5 mph - N/A   Clear
4:35 PM 37.4 °F 32.8 °F 17.6 °F 45% 30.05 in 10.0 mi West 5.8 mph - N/A   Clear
4:55 PM 37.4 °F 30.8 °F 19.4 °F 48% 30.04 in 10.0 mi West 9.2 mph - N/A   Clear
5:15 PM 35.6 °F 29.2 °F 21.2 °F 56% 30.04 in 10.0 mi West 8.1 mph - N/A   Clear
5:35 PM 37.4 °F 34.9 °F 21.2 °F 52% 30.04 in 10.0 mi WNW 3.5 mph - N/A   Clear
5:55 PM 37.4 °F 32.1 °F 19.4 °F 48% 30.03 in 10.0 mi NNW 6.9 mph - N/A   Clear
6:15 PM 37.4 °F 30.8 °F 19.4 °F 48% 30.03 in 10.0 mi ENE 9.2 mph - N/A   Clear
6:35 PM 35.6 °F 29.9 °F 21.2 °F 56% 30.04 in 10.0 mi ENE 6.9 mph - N/A   Scattered Clouds
6:55 PM 35.6 °F 30.7 °F 19.4 °F 52% 30.05 in 10.0 mi NNE 5.8 mph - N/A   Mostly Cloudy
7:15 PM 35.6 °F 31.7 °F 19.4 °F 52% 30.05 in 10.0 mi NNE 4.6 mph - N/A   Scattered Clouds
7:35 PM 33.8 °F 29.6 °F 19.4 °F 56% 30.05 in 10.0 mi NNE 4.6 mph - N/A   Clear
7:55 PM 33.8 °F 28.6 °F 19.4 °F 56% 30.05 in 10.0 mi NNE 5.8 mph - N/A   Clear
8:15 PM 32.0 °F 27.5 °F 19.4 °F 60% 30.06 in 10.0 mi NNE 4.6 mph - N/A   Clear
8:35 PM 32.0 °F 27.5 °F 19.4 °F 60% 30.06 in 10.0 mi NNE 4.6 mph - N/A   Clear
8:55 PM 32.0 °F 27.5 °F 19.4 °F 60% 30.06 in 10.0 mi NNE 4.6 mph - N/A   Clear
9:15 PM 30.2 °F 26.7 °F 19.4 °F 64% 30.07 in 10.0 mi North 3.5 mph - N/A   Clear
9:35 PM 32.0 °F 27.5 °F 19.4 °F 60% 30.08 in 10.0 mi North 4.6 mph - N/A   Scattered Clouds
9:55 PM 30.2 °F - 21.2 °F 69% 30.07 in 10.0 mi Calm Calm - N/A   Scattered Clouds
10:15 PM 28.4 °F - 21.2 °F 74% 30.07 in 10.0 mi Calm Calm - N/A   Mostly Cloudy
10:35 PM 30.2 °F - 21.2 °F 69% 30.08 in 10.0 mi Calm Calm - N/A   Overcast
10:55 PM 32.0 °F 27.5 °F 21.2 °F 64% 30.07 in 10.0 mi North 4.6 mph - N/A   Overcast
11:15 PM 30.2 °F 26.7 °F 21.2 °F 69% 30.08 in 10.0 mi NE 3.5 mph - N/A   Overcast
11:35 PM 30.2 °F 25.4 °F 21.2 °F 69% 30.08 in 10.0 mi ENE 4.6 mph - N/A   Overcast
11:55 PM 30.2 °F - 21.2 °F 69% 30.08 in 10.0 mi Calm Calm - N/A   Mostly Cloudy